FW8037 Weather Reports


time (UTC)temp
C
wind
direction
speed
KPH
gust
KPH
rain 1hr
cm
rain 24hr
cm
rain mn
cm
humidity
%
barometer
mb
20260906115636 20 42 0.0 1.6 0.00 0.00 0.00 99 1019.6
20260906115132 20 155 1.6 1.6 0.00 0.00 0.00 99 1019.6
20260906114631 20 101 6.4 9.7 0.00 0.00 0.00 99 1019.6
20260906114126 20 142 1.6 3.2 0.00 0.00 0.00 99 1019.4
20260906113626 20 180 4.8 9.7 0.00 0.00 0.00 99 1019.6
20260906113121 20 172 1.6 3.2 0.00 0.00 0.00 99 1019.5
20260906112620 20 142 3.2 3.2 0.00 0.00 0.00 99 1019.7
20260906112118 20 220 0.0 1.6 0.00 0.00 0.00 99 1019.5
20260906111616 20 164 3.2 3.2 0.00 0.00 0.00 99 1019.5
20260906111112 19 224 0.0 0.0 0.00 0.00 0.00 99 1019.4
20260906110612 19 213 0.0 0.0 0.00 0.00 0.00 99 1019.6
20260906110106 19 217 0.0 0.0 0.00 0.00 0.00 99 1019.5
20260906105600 19 124 1.6 1.6 0.00 0.00 0.00 99 1019.3
20260906105057 19 127 0.0 1.6 0.00 0.00 0.00 99 1019.4
20260906104555 19 148 1.6 1.6 0.00 0.00 0.00 99 1019.3
20260906104050 18 151 0.0 0.0 0.00 0.00 0.00 99 1019.5
20260906103548 18 212 0.0 0.0 0.00 0.00 0.00 99 1019.8
20260906103044 18 213 0.0 0.0 0.00 0.00 0.00 99 1019.5
20260906102543 18 168 0.0 0.0 0.00 0.00 0.00 99 1019.6
20260906102039 18 265 0.0 0.0 0.00 0.00 0.00 99 1019.6
20260906101533 18 207 0.0 0.0 0.00 0.00 0.00 99 1019.6
20260906101028 18 232 0.0 0.0 0.00 0.00 0.00 99 1019.3
20260906100523 18 231 0.0 0.0 0.00 0.00 0.00 99 1019.5
20260906100018 18 228 0.0 0.0 0.00 0.00 0.00 99 1019.5
20260906095513 18 221 0.0 0.0 0.00 0.00 0.00 99 1019.6
20260906095008 19 242 0.0 0.0 0.00 0.00 0.00 99 1019.2
20260906094507 19 241 0.0 0.0 0.00 0.00 0.00 99 1019.1
20260906094003 19 235 0.0 0.0 0.00 0.00 0.00 99 1019.0
20260906093459 19 238 0.0 0.0 0.00 0.00 0.00 99 1019.0
20260906092954 19 236 0.0 0.0 0.00 0.00 0.00 99 1019.1
20260906092454 19 240 0.0 0.0 0.00 0.00 0.00 99 1019.0
20260906091949 19 240 0.0 0.0 0.00 0.00 0.00 99 1019.2
20260906091445 19 240 0.0 0.0 0.00 0.00 0.00 99 1019.0
20260906090941 19 227 0.0 0.0 0.00 0.00 0.00 99 1019.1
20260906090436 19 237 0.0 0.0 0.00 0.00 0.00 99 1019.1
20260906085930 19 246 0.0 0.0 0.00 0.00 0.00 99 1019.3
20260906085429 19 238 0.0 0.0 0.00 0.00 0.00 99 1018.9
20260906084928 19 238 0.0 0.0 0.00 0.00 0.00 99 1018.9
20260906084424 20 237 0.0 0.0 0.00 0.00 0.00 99 1018.6
20260906083923 20 127 0.0 0.0 0.00 0.00 0.00 99 1018.9
20260906083418 20 258 0.0 0.0 0.00 0.00 0.00 99 1018.9
20260906082917 20 232 0.0 0.0 0.00 0.00 0.00 99 1018.6
20260906082413 20 233 0.0 0.0 0.00 0.00 0.00 99 1018.5
20260906081909 20 237 0.0 0.0 0.00 0.00 0.00 99 1018.5
20260906081404 20 214 0.0 1.6 0.00 0.00 0.00 99 1018.5
20260906080900 20 227 0.0 0.0 0.00 0.00 0.00 99 1018.6
20260906080357 20 193 3.2 3.2 0.00 0.00 0.00 99 1018.6
20260906075855 20 199 0.0 0.0 0.00 0.00 0.00 99 1018.4
20260906075351 20 100 1.6 1.6 0.00 0.00 0.00 99 1018.3
20260906074846 20 87 1.6 3.2 0.00 0.00 0.00 99 1018.4
20260906074346 20 69 1.6 1.6 0.00 0.00 0.00 99 1018.8
20260906073844 20 116 1.6 1.6 0.00 0.00 0.00 99 1018.6
20260906073339 20 195 0.0 0.0 0.00 0.00 0.00 99 1018.5
20260906072836 20 56 4.8 9.7 0.00 0.00 0.00 99 1018.2
20260906072332 20 90 8.0 12.9 0.00 0.00 0.00 99 1018.5
20260906071827 20 82 3.2 8.0 0.00 0.00 0.00 99 1018.5
20260906071322 20 91 3.2 4.8 0.00 0.00 0.00 99 1018.6
20260906070818 21 87 6.4 8.0 0.00 0.00 0.00 99 1018.4
20260906070313 21 77 4.8 8.0 0.00 0.00 0.00 99 1018.5
20260906065808 21 116 4.8 8.0 0.00 0.00 0.00 99 1018.8
20260906065305 21 347 0.0 1.6 0.00 0.00 0.00 99 1019.0
20260906064759 21 65 1.6 3.2 0.00 0.00 0.00 99 1018.8
20260906064255 21 58 1.6 3.2 0.00 0.00 0.00 99 1018.6
20260906063749 21 69 3.2 4.8 0.00 0.00 0.00 99 1018.9
20260906063245 21 58 1.6 3.2 0.00 0.00 0.00 99 1019.0
20260906062740 21 84 1.6 4.8 0.00 0.00 0.00 99 1019.0
20260906062239 21 81 4.8 8.0 0.00 0.00 0.00 99 1019.1
20260906061735 21 29 1.6 1.6 0.00 0.00 0.00 99 1019.3
20260906061231 21 2 0.0 0.0 0.00 0.00 0.00 99 1019.1
20260906060726 21 89 4.8 8.0 0.00 0.00 0.00 99 1018.9
20260906060224 21 39 3.2 3.2 0.00 0.00 0.00 99 1019.1
20260906055719 21 62 0.0 1.6 0.00 0.00 0.00 99 1019.2
20260906055214 21 314 0.0 0.0 0.00 0.00 0.00 99 1019.2
20260906054709 21 50 3.2 3.2 0.00 0.00 0.00 99 1019.0
20260906054204 21 88 0.0 1.6 0.00 0.00 0.00 99 1019.2
20260906053701 21 329 0.0 0.0 0.00 0.00 0.00 99 1019.0
20260906053156 21 249 0.0 0.0 0.00 0.00 0.00 99 1018.8
20260906052651 21 221 0.0 0.0 0.00 0.00 0.00 99 1018.9
20260906052148 21 55 1.6 3.2 0.00 0.00 0.00 99 1019.0
20260906051644 21 93 0.0 1.6 0.00 0.00 0.00 99 1018.8
20260906051143 21 108 1.6 1.6 0.00 0.00 0.00 99 1018.9
20260906050639 21 231 0.0 0.0 0.00 0.00 0.00 99 1018.8
20260906050134 21 71 0.0 0.0 0.00 0.00 0.00 99 1018.6
20260906045632 21 130 0.0 1.6 0.00 0.00 0.00 99 1018.6
20260906045128 21 6 0.0 1.6 0.00 0.00 0.00 99 1018.9
20260906044624 21 140 0.0 0.0 0.00 0.00 0.00 99 1018.8
20260906044119 22 135 1.6 1.6 0.00 0.00 0.00 99 1018.6
20260906043615 22 108 1.6 3.2 0.00 0.00 0.00 99 1018.9
20260906043110 22 184 0.0 0.0 0.00 0.00 0.00 99 1018.9
20260906042609 22 210 0.0 0.0 0.00 0.00 0.00 99 1018.6
20260906042104 22 112 1.6 1.6 0.00 0.00 0.00 99 1018.3
20260906041600 22 138 1.6 3.2 0.00 0.00 0.00 99 1018.6
20260906041055 22 291 0.0 0.0 0.00 0.00 0.00 99 1018.5
20260906040550 22 161 0.0 0.0 0.00 0.00 0.00 99 1018.5
20260906040045 22 35 1.6 3.2 0.00 0.00 0.00 99 1018.6
20260906035541 22 27 0.0 0.0 0.00 0.00 0.00 99 1018.4
20260906035037 22 62 3.2 3.2 0.00 0.00 0.00 99 1018.6
20260906034536 22 148 0.0 0.0 0.00 0.00 0.00 99 1018.4
20260906034031 22 123 1.6 3.2 0.00 0.00 0.00 99 1018.4
20260906033526 22 38 0.0 1.6 0.00 0.00 0.00 99 1018.4
20260906033022 22 33 0.0 0.0 0.00 0.00 0.00 99 1018.4
20260906032519 22 57 0.0 0.0 0.00 0.00 0.00 99 1018.5
20260906032018 22 98 1.6 3.2 0.00 0.00 0.00 99 1018.6
20260906031514 22 40 0.0 0.0 0.00 0.00 0.00 99 1018.6
20260906031003 22 71 1.6 1.6 0.00 0.00 0.00 99 1018.5
20260906030457 22 264 0.0 0.0 0.00 0.00 0.00 98 1018.3
20260906025952 22 213 0.0 1.6 0.00 0.00 0.00 98 1018.4
20260906025451 22 61 0.0 0.0 0.00 0.00 0.00 98 1018.3
20260906024950 22 73 1.6 4.8 0.00 0.00 0.00 98 1018.2
20260906024445 22 354 0.0 0.0 0.00 0.00 0.00 98 1018.0
20260906023945 22 353 0.0 0.0 0.00 0.00 0.00 98 1018.2
20260906023441 22 23 0.0 0.0 0.00 0.00 0.00 97 1018.1
20260906022936 22 139 0.0 0.0 0.00 0.00 0.00 97 1017.9
20260906022431 23 67 3.2 4.8 0.00 0.00 0.00 97 1017.9
20260906021926 23 133 0.0 0.0 0.00 0.00 0.00 97 1017.8
20260906021426 23 124 0.0 0.0 0.00 0.00 0.00 97 1017.9
20260906020920 23 92 1.6 1.6 0.00 0.00 0.00 97 1017.9
20260906020414 23 112 3.2 3.2 0.00 0.00 0.00 96 1017.6
20260906015904 23 319 0.0 0.0 0.00 0.00 0.00 96 1017.6
20260906015403 23 78 0.0 1.6 0.00 0.00 0.00 96 1017.5
20260906014902 23 90 0.0 0.0 0.00 0.00 0.00 96 1017.4
20260906014357 23 276 0.0 0.0 0.00 0.00 0.00 96 1017.5
20260906013853 23 311 0.0 0.0 0.00 0.00 0.00 96 1017.4
20260906013349 23 343 0.0 0.0 0.00 0.00 0.00 96 1017.4
20260906012844 23 300 0.0 0.0 0.00 0.00 0.00 96 1017.4
20260906012339 23 306 0.0 1.6 0.00 0.00 0.00 96 1017.2
20260906011838 23 43 0.0 1.6 0.00 0.00 0.00 96 1017.2
20260906011333 23 308 0.0 0.0 0.00 0.00 0.00 96 1017.2
20260906010829 23 311 0.0 0.0 0.00 0.00 0.00 95 1017.2
20260906010326 23 39 1.6 1.6 0.00 0.00 0.00 95 1017.1
20260906005821 24 24 0.0 0.0 0.00 0.00 0.00 95 1017.0
20260906005320 24 4 0.0 0.0 0.00 0.00 0.00 95 1017.1
20260906004818 24 97 1.6 3.2 0.00 0.00 0.00 94 1017.1
20260906004312 25 37 0.0 0.0 0.00 0.00 0.00 94 1017.1
20260906003807 25 17 0.0 0.0 0.00 0.00 0.00 95 1016.9
20260906003303 25 17 1.6 3.2 0.00 0.00 0.00 94 1017.1
20260906002758 25 81 1.6 1.6 0.00 0.00 0.00 94 1016.8
20260906002257 25 48 3.2 3.2 0.00 0.00 0.00 94 1017.0
20260906001753 25 356 0.0 1.6 0.00 0.00 0.00 94 1017.2
20260906001248 25 49 0.0 0.0 0.00 0.00 0.00 93 1016.8
20260906000743 25 17 0.0 0.0 0.00 0.00 0.00 93 1017.0
20260906000238 26 28 0.0 0.0 0.00 0.00 0.00 93 1016.8
20260905235733 26 37 0.0 1.6 0.00 0.00 0.00 92 1016.9
20260905235232 26 66 0.0 1.6 0.00 0.00 0.00 92 1016.8
20260905234728 26 114 1.6 3.2 0.00 0.00 0.00 91 1017.0
20260905234223 26 116 0.0 1.6 0.00 0.00 0.00 91 1016.7
20260905233719 26 119 3.2 3.2 0.00 0.00 0.00 91 1016.6
20260905233218 26 22 1.6 1.6 0.00 0.00 0.00 91 1016.8
20260905232713 26 37 4.8 8.0 0.00 0.00 0.00 91 1016.8
20260905232209 26 104 3.2 4.8 0.00 0.00 0.00 90 1016.8
20260905231704 26 37 0.0 1.6 0.00 0.00 0.00 90 1016.8
20260905231200 26 120 4.8 8.0 0.00 0.00 0.00 90 1016.8
20260905230655 26 98 8.0 12.9 0.00 0.00 0.00 90 1016.7
20260905230153 27 65 1.6 3.2 0.00 0.00 0.00 89 1016.6
20260905225653 27 43 0.0 0.0 0.00 0.00 0.00 89 1016.6
20260905225148 27 147 1.6 1.6 0.00 0.00 0.00 88 1016.6
20260905224648 27 122 3.2 3.2 0.00 0.00 0.00 88 1016.5
20260905224148 27 53 4.8 4.8 0.00 0.00 0.00 88 1016.2
20260905223644 27 47 6.4 11.3 0.00 0.00 0.00 87 1016.2
20260905223142 27 115 4.8 4.8 0.00 0.00 0.00 86 1016.6
20260905222637 27 55 3.2 4.8 0.00 0.00 0.00 87 1016.6
20260905222131 28 0 1.6 1.6 0.00 0.00 0.00 86 1016.7
20260905221627 28 41 1.6 1.6 0.00 0.00 0.00 85 1016.5
20260905221123 28 82 1.6 4.8 0.00 0.00 0.00 86 1016.4
20260905220619 28 292 1.6 3.2 0.00 0.00 0.00 86 1016.6
20260905220115 28 65 4.8 4.8 0.00 0.00 0.00 86 1016.3
20260905215614 28 314 0.0 1.6 0.00 0.00 0.00 86 1016.6
20260905215110 27 251 0.0 0.0 0.00 0.00 0.00 86 1016.4
20260905214606 27 2 0.0 0.0 0.00 0.00 0.00 86 1016.3
20260905214106 28 87 1.6 3.2 0.00 0.00 0.00 86 1016.1
20260905213601 28 113 4.8 8.0 0.00 0.00 0.00 84 1016.0
20260905213057 28 346 1.6 1.6 0.00 0.00 0.00 83 1016.0
20260905212557 28 305 1.6 3.2 0.00 0.00 0.00 84 1015.9
20260905212056 28 355 4.8 4.8 0.00 0.00 0.00 83 1016.0
20260905211552 28 62 1.6 1.6 0.00 0.00 0.00 83 1016.0
20260905211047 28 29 3.2 4.8 0.00 0.00 0.00 84 1015.9
20260905210543 28 340 6.4 9.7 0.00 0.00 0.00 84 1016.0
20260905210038 28 79 9.7 11.3 0.00 0.00 0.00 84 1016.0
20260905205536 28 45 8.0 11.3 0.00 0.00 0.00 85 1016.1
20260905205031 28 22 8.0 12.9 0.00 0.00 0.00 85 1015.9
20260905204526 28 71 1.6 1.6 0.00 0.00 0.00 86 1016.4
20260905204021 29 269 1.6 1.6 0.00 0.00 0.00 85 1016.3
20260905203521 28 81 6.4 11.3 0.00 0.00 0.00 85 1016.3
20260905203016 28 110 3.2 4.8 0.00 0.00 0.00 87 1016.3
20260905202511 28 71 1.6 1.6 0.00 0.00 0.00 87 1016.3
20260905202007 28 22 1.6 1.6 0.00 0.00 0.00 88 1016.6
20260905201502 28 196 1.6 3.2 0.00 0.00 0.00 87 1016.9
20260905201002 28 39 4.8 12.9 0.00 0.00 0.00 88 1016.7
20260905200457 28 111 6.4 9.7 0.00 0.00 0.00 88 1016.9
20260905195956 27 84 3.2 4.8 0.00 0.00 0.00 88 1017.0
20260905195451 28 113 4.8 8.0 0.00 0.00 0.00 86 1017.1
20260905194947 27 188 0.0 1.6 0.00 0.00 0.00 88 1017.1
20260905194446 27 40 8.0 9.7 0.00 0.00 0.00 88 1017.0
20260905193941 27 18 3.2 3.2 0.00 0.00 0.00 88 1017.1
20260905193441 27 96 3.2 4.8 0.00 0.00 0.00 89 1017.1
20260905192936 28 104 16.1 22.5 0.00 0.00 0.00 88 1017.1
20260905192431 28 332 1.6 4.8 0.00 0.00 0.00 89 1016.8
20260905191926 28 355 11.3 14.5 0.00 0.00 0.00 88 1016.8
20260905191426 28 74 3.2 4.8 0.00 0.00 0.00 88 1016.8
20260905190920 28 22 4.8 8.0 0.00 0.00 0.00 87 1017.0
20260905190418 28 4 4.8 8.0 0.00 0.00 0.00 87 1017.3
20260905185916 28 273 1.6 1.6 0.00 0.00 0.00 88 1017.7
20260905185412 28 338 4.8 8.0 0.00 0.00 0.00 88 1017.7
20260905184911 28 342 3.2 4.8 0.00 0.00 0.00 88 1017.8
20260905184410 28 339 8.0 11.3 0.00 0.00 0.00 89 1017.7
20260905183909 28 11 1.6 1.6 0.00 0.00 0.00 89 1017.9
20260905183359 28 359 8.0 9.7 0.00 0.00 0.00 89 1018.0
20260905182854 28 8 11.3 14.5 0.00 0.00 0.00 88 1017.8
20260905182353 28 343 4.8 4.8 0.00 0.00 0.00 88 1017.9
20260905181849 28 283 3.2 4.8 0.00 0.00 0.00 89 1017.9
20260905181349 28 335 4.8 8.0 0.00 0.00 0.00 89 1018.1
20260905180848 28 290 3.2 4.8 0.00 0.00 0.00 89 1018.1
20260905180343 28 280 3.2 3.2 0.00 0.00 0.00 88 1018.1
20260905175837 28 346 6.4 8.0 0.00 0.00 0.00 88 1018.1
20260905175332 28 343 11.3 12.9 0.00 0.00 0.00 88 1018.1
20260905174827 28 15 4.8 4.8 0.00 0.00 0.00 88 1017.8
20260905174323 28 15 1.6 3.2 0.00 0.00 0.00 89 1018.0
20260905173818 28 323 3.2 3.2 0.00 0.00 0.00 89 1018.4
20260905173315 28 280 1.6 3.2 0.00 0.00 0.00 90 1018.3
20260905172814 28 344 4.8 4.8 0.00 0.00 0.00 89 1018.3
20260905172312 28 291 3.2 3.2 0.00 0.00 0.00 89 1018.5
20260905171809 28 343 4.8 4.8 0.00 0.00 0.00 88 1018.2
20260905171305 28 287 4.8 4.8 0.00 0.00 0.00 88 1018.5
20260905170801 28 309 1.6 1.6 0.00 0.00 0.00 88 1018.1
20260905170257 28 305 1.6 3.2 0.00 0.00 0.00 89 1018.1
20260905165756 27 336 0.0 0.0 0.00 0.00 0.00 90 1018.1
20260905165252 28 354 4.8 4.8 0.00 0.00 0.00 90 1018.0
20260905164752 28 25 1.6 3.2 0.00 0.00 0.00 90 1018.0
20260905164246 28 334 1.6 1.6 0.00 0.00 0.00 90 1018.0
20260905163742 27 352 4.8 4.8 0.00 0.00 0.00 90 1017.8
20260905163238 27 325 3.2 4.8 0.00 0.00 0.00 90 1017.9
20260905162733 27 340 3.2 3.2 0.00 0.00 0.00 90 1018.2
20260905162233 27 307 1.6 1.6 0.00 0.00 0.00 91 1018.1
20260905161723 27 337 4.8 8.0 0.00 0.00 0.00 90 1018.3
20260905161221 27 15 3.2 3.2 0.00 0.00 0.00 90 1018.2
20260905160720 27 100 3.2 3.2 0.00 0.00 0.00 90 1018.0
20260905160220 27 33 0.0 1.6 0.00 0.00 0.00 90 1018.4
20260905155714 26 311 1.6 3.2 0.00 0.00 0.00 90 1018.1
20260905155213 26 336 1.6 1.6 0.00 0.00 0.00 90 1018.2
20260905154707 26 325 0.0 1.6 0.00 0.00 0.00 91 1018.2
20260905154203 26 345 8.0 9.7 0.00 0.00 0.00 90 1018.2
20260905153659 26 332 4.8 4.8 0.00 0.00 0.00 91 1018.0
20260905153154 26 335 1.6 1.6 0.00 0.00 0.00 91 1018.1
20260905152649 26 340 3.2 4.8 0.00 0.00 0.00 91 1017.9
20260905152144 25 344 3.2 3.2 0.00 0.00 0.00 91 1018.0
20260905151638 25 312 3.2 4.8 0.00 0.00 0.00 91 1017.9
20260905151134 25 39 0.0 1.6 0.00 0.00 0.00 91 1017.9
20260905150629 25 325 4.8 4.8 0.00 0.00 0.00 91 1017.7
20260905150128 25 349 4.8 4.8 0.00 0.00 0.00 91 1017.5
20260905145626 25 4 6.4 8.0 0.00 0.00 0.00 92 1017.5
20260905145125 25 355 3.2 4.8 0.00 0.00 0.00 92 1017.4
20260905144620 25 334 1.6 3.2 0.00 0.00 0.00 93 1017.5
20260905144119 25 10 1.6 1.6 0.00 0.00 0.00 93 1017.4
20260905143614 25 355 0.0 1.6 0.00 0.00 0.00 93 1017.4
20260905143109 25 341 1.6 1.6 0.00 0.00 0.00 93 1017.4
20260905142607 24 329 1.6 1.6 0.00 0.00 0.00 94 1017.3
20260905142102 24 348 4.8 4.8 0.00 0.00 0.00 94 1017.1
20260905141601 24 338 1.6 3.2 0.00 0.00 0.00 94 1017.4
20260905141058 24 338 4.8 4.8 0.00 0.00 0.00 94 1017.1
20260905140553 24 350 4.8 4.8 0.00 0.00 0.00 94 1017.1
20260905140052 24 319 0.0 1.6 0.00 0.00 0.00 95 1017.1
20260905135548 24 331 1.6 3.2 0.00 0.00 0.00 95 1017.2
20260905135047 23 335 0.0 1.6 0.00 0.00 0.00 95 1017.0
20260905134542 23 329 0.0 0.0 0.00 0.00 0.00 95 1017.4
20260905134041 23 330 0.0 1.6 0.00 0.00 0.00 95 1017.0
20260905133536 23 332 0.0 0.0 0.00 0.00 0.00 96 1016.9
20260905133031 23 327 1.6 1.6 0.00 0.00 0.00 96 1017.2
20260905132530 23 57 0.0 0.0 0.00 0.00 0.00 96 1016.7
20260905132025 23 68 0.0 0.0 0.00 0.00 0.00 97 1017.0
20260905131521 22 19 1.6 1.6 0.00 0.00 0.00 98 1016.6
20260905131016 22 232 0.0 0.0 0.00 0.00 0.00 99 1016.7
20260905130515 22 235 0.0 0.0 0.00 0.00 0.00 99 1016.6
20260905130011 21 232 0.0 1.6 0.00 0.00 0.00 99 1016.6
20260905125505 21 226 0.0 0.0 0.00 0.00 0.00 99 1016.5
20260905125000 21 127 0.0 0.0 0.00 0.00 0.00 99 1016.2
20260905124457 21 257 0.0 0.0 0.00 0.00 0.00 99 1016.2
20260905123952 21 270 0.0 0.0 0.00 0.00 0.00 99 1016.3
20260905123449 21 270 0.0 0.0 0.00 0.00 0.00 99 1016.3
20260905122948 21 270 0.0 0.0 0.00 0.00 0.00 99 1016.2
20260905122443 21 283 0.0 0.0 0.00 0.00 0.00 99 1016.2
20260905121938 21 270 0.0 0.0 0.00 0.00 0.00 99 1016.2
20260905121434 21 277 0.0 0.0 0.00 0.00 0.00 99 1016.1
20260905120933 21 275 0.0 0.0 0.00 0.00 0.00 99 1016.2
20260905120427 20 289 0.0 0.0 0.00 0.00 0.00 99 1016.1
20260905115923 20 295 0.0 1.6 0.00 0.00 0.00 99 1016.0